Zurück zum Katalog

CZ-6A DEB

AktivPO
NORAD 60966·DEBRIS·🇨🇳 China

Gestartet Aug 6, 2024 von Taiyuan Satellite Launch Center

Loading…

Nächste Überflüge (nächste 24 Stunden)

TLE

AktuellSource: Space-Track

Epoche: Sep 14, 2026, 08:04 UTC

1 60966U 24140LR  26257.33679845  .00001298  00000-0  34750-3 0  9997
2 60966  88.8808 249.9416 0069931   0.1041   0.0165 14.46271430109103

Verfolge CZ-6A DEB in Echtzeit mit AllMySat

Download on the App Store